Time,TemperatureF,DewpointF,PressureIn,WindDirection,WindDirectionDegrees,WindSpeedMPH,WindSpeedGustMPH,Humidity,HourlyPrecipIn,Conditions,Clouds,dailyrainin,SoftwareType,DateUTC
2013-08-21 00:01:00,54.3,50.2,30.04,NNE,29,0.0,0.0,86,0.00,,,0.00,WUHU216DAVISVP2,2013-08-21 07:01:00,
2013-08-21 00:06:00,54.2,50.4,30.04,NNE,29,0.0,0.0,87,0.00,,,0.00,WUHU216DAVISVP2,2013-08-21 07:06:00,
2013-08-21 00:11:00,54.0,50.2,30.05,NNE,29,0.0,0.0,87,0.00,,,0.00,WUHU216DAVISVP2,2013-08-21 07:11:00,
2013-08-21 00:16:00,53.9,50.1,30.05,NNE,29,0.0,0.0,87,0.00,,,0.00,WUHU216DAVISVP2,2013-08-21 07:16:00,
2013-08-21 00:21:00,53.7,49.9,30.05,NNE,29,0.0,0.0,87,0.00,,,0.00,WUHU216DAVISVP2,2013-08-21 07:21:00,
2013-08-21 00:26:00,53.6,49.8,30.05,NNE,29,0.0,0.0,87,0.00,,,0.00,WUHU216DAVISVP2,2013-08-21 07:26:00,
2013-08-21 00:31:00,53.5,49.7,30.05,NNE,29,0.0,0.0,87,0.00,,,0.00,WUHU216DAVISVP2,2013-08-21 07:31:00,
2013-08-21 00:36:00,53.3,49.8,30.05,NNE,29,0.0,0.0,88,0.00,,,0.00,WUHU216DAVISVP2,2013-08-21 07:36:00,
2013-08-21 00:41:00,53.1,49.6,30.05,NNE,29,0.0,0.0,88,0.00,,,0.00,WUHU216DAVISVP2,2013-08-21 07:41:00,
2013-08-21 00:46:00,53.0,49.5,30.05,NNE,29,0.0,0.0,88,0.00,,,0.00,WUHU216DAVISVP2,2013-08-21 07:46:00,
2013-08-21 00:51:00,52.8,49.3,30.05,NNE,29,0.0,0.0,88,0.00,,,0.00,WUHU216DAVISVP2,2013-08-21 07:51:00,
2013-08-21 00:56:00,52.6,49.4,30.05,NNE,29,0.0,0.0,89,0.00,,,0.00,WUHU216DAVISVP2,2013-08-21 07:56:00,
2013-08-21 01:01:00,52.5,50.2,30.05,NNE,29,0.0,0.0,92,0.00,,,0.00,WUHU216DAVISVP2,2013-08-21 08:01:00,
2013-08-21 01:06:00,52.4,49.2,30.06,NNE,29,0.0,0.0,89,0.00,,,0.00,WUHU216DAVISVP2,2013-08-21 08:06:00,
2013-08-21 01:11:00,52.3,49.4,30.05,NNE,29,0.0,0.0,90,0.00,,,0.00,WUHU216DAVISVP2,2013-08-21 08:11:00,
2013-08-21 01:16:00,52.2,49.4,30.05,NNE,29,0.0,0.0,90,0.00,,,0.00,WUHU216DAVISVP2,2013-08-21 08:16:00,
2013-08-21 01:21:00,52.1,49.3,30.05,NNE,29,0.0,0.0,90,0.00,,,0.00,WUHU216DAVISVP2,2013-08-21 08:21:00,
2013-08-21 01:26:00,51.9,49.0,30.05,NNE,29,0.0,0.0,90,0.00,,,0.00,WUHU216DAVISVP2,2013-08-21 08:26:00,
2013-08-21 01:31:00,51.8,48.9,30.05,NNE,29,0.0,0.0,90,0.00,,,0.00,WUHU216DAVISVP2,2013-08-21 08:31:00,
2013-08-21 01:36:00,51.7,48.8,30.05,NNE,29,0.0,0.0,90,0.00,,,0.00,WUHU216DAVISVP2,2013-08-21 08:36:00,
2013-08-21 01:41:00,51.5,48.9,30.05,NNE,29,0.0,0.0,91,0.00,,,0.00,WUHU216DAVISVP2,2013-08-21 08:41:00,
2013-08-21 01:46:00,51.5,49.0,30.05,NNE,29,0.0,0.0,91,0.00,,,0.00,WUHU216DAVISVP2,2013-08-21 08:46:00,
2013-08-21 01:51:00,51.4,48.9,30.05,NNE,29,0.0,0.0,91,0.00,,,0.00,WUHU216DAVISVP2,2013-08-21 08:51:00,
2013-08-21 01:56:00,51.3,48.7,30.05,NNE,29,0.0,0.0,91,0.00,,,0.00,WUHU216DAVISVP2,2013-08-21 08:56:00,
2013-08-21 02:01:00,51.2,48.6,30.05,NNE,29,0.0,0.0,91,0.00,,,0.00,WUHU216DAVISVP2,2013-08-21 09:01:00,
2013-08-21 02:06:00,51.2,48.6,30.05,NNE,29,0.0,0.0,91,0.00,,,0.00,WUHU216DAVISVP2,2013-08-21 09:06:00,
2013-08-21 02:11:00,51.1,48.5,30.05,NNE,29,0.0,0.0,91,0.00,,,0.00,WUHU216DAVISVP2,2013-08-21 09:11:00,
2013-08-21 02:16:00,51.0,48.8,30.05,NNE,29,0.0,0.0,92,0.00,,,0.00,WUHU216DAVISVP2,2013-08-21 09:16:00,
2013-08-21 02:21:00,50.9,48.7,30.05,NNE,29,0.0,0.0,92,0.00,,,0.00,WUHU216DAVISVP2,2013-08-21 09:21:00,
2013-08-21 02:26:00,50.8,48.5,30.04,NNE,29,0.0,0.0,92,0.00,,,0.00,WUHU216DAVISVP2,2013-08-21 09:26:00,
2013-08-21 02:31:00,50.8,48.5,30.04,NNE,29,0.0,0.0,92,0.00,,,0.00,WUHU216DAVISVP2,2013-08-21 09:31:00,
2013-08-21 02:36:00,50.7,48.4,30.04,NNE,29,0.0,0.0,92,0.00,,,0.00,WUHU216DAVISVP2,2013-08-21 09:36:00,
2013-08-21 02:41:00,50.6,48.6,30.04,NNE,29,0.0,0.0,93,0.00,,,0.00,WUHU216DAVISVP2,2013-08-21 09:41:00,
2013-08-21 02:46:00,50.5,48.6,30.04,NNE,29,0.0,0.0,93,0.00,,,0.00,WUHU216DAVISVP2,2013-08-21 09:46:00,
2013-08-21 02:51:00,50.5,48.6,30.04,NNE,29,0.0,0.0,93,0.00,,,0.00,WUHU216DAVISVP2,2013-08-21 09:51:00,
2013-08-21 02:56:00,50.5,48.5,30.04,NNE,29,0.0,0.0,93,0.00,,,0.00,WUHU216DAVISVP2,2013-08-21 09:56:00,
2013-08-21 03:01:00,50.4,48.4,30.04,NNE,29,0.0,0.0,93,0.00,,,0.00,WUHU216DAVISVP2,2013-08-21 10:01:00,
2013-08-21 03:06:00,50.3,48.3,30.04,NNE,29,0.0,0.0,93,0.00,,,0.00,WUHU216DAVISVP2,2013-08-21 10:06:00,
2013-08-21 03:11:00,50.3,48.3,30.04,NNE,29,0.0,0.0,93,0.00,,,0.00,WUHU216DAVISVP2,2013-08-21 10:11:00,
2013-08-21 03:16:00,50.2,48.2,30.04,NNE,29,0.0,0.0,93,0.00,,,0.00,WUHU216DAVISVP2,2013-08-21 10:16:00,
2013-08-21 03:21:00,50.2,48.5,30.04,NNE,29,0.0,0.0,94,0.00,,,0.00,WUHU216DAVISVP2,2013-08-21 10:21:00,
2013-08-21 03:26:00,50.3,48.6,30.03,NNE,29,0.0,0.0,94,0.00,,,0.00,WUHU216DAVISVP2,2013-08-21 10:26:00,
2013-08-21 03:31:00,50.3,48.6,30.03,NNE,29,0.0,0.0,94,0.00,,,0.00,WUHU216DAVISVP2,2013-08-21 10:31:00,
2013-08-21 03:36:00,50.3,48.6,30.03,NNE,29,0.0,0.0,94,0.00,,,0.00,WUHU216DAVISVP2,2013-08-21 10:36:00,
2013-08-21 03:41:00,50.3,48.6,30.04,NNE,29,0.0,0.0,94,0.00,,,0.00,WUHU216DAVISVP2,2013-08-21 10:41:00,
2013-08-21 03:46:00,50.2,48.5,30.03,NNE,29,0.0,0.0,94,0.00,,,0.00,WUHU216DAVISVP2,2013-08-21 10:46:00,
2013-08-21 03:51:00,50.1,48.4,30.04,NNE,29,0.0,0.0,94,0.00,,,0.00,WUHU216DAVISVP2,2013-08-21 10:51:00,
2013-08-21 03:56:00,50.1,48.4,30.04,NNE,29,0.0,0.0,94,0.00,,,0.00,WUHU216DAVISVP2,2013-08-21 10:56:00,
2013-08-21 04:01:00,50.0,48.3,30.04,NNE,29,0.0,0.0,94,0.00,,,0.00,WUHU216DAVISVP2,2013-08-21 11:01:00,
2013-08-21 04:06:00,49.9,48.2,30.04,NNE,29,0.0,0.0,94,0.00,,,0.00,WUHU216DAVISVP2,2013-08-21 11:06:00,
2013-08-21 04:11:00,49.9,48.2,30.04,NNE,29,0.0,0.0,94,0.00,,,0.00,WUHU216DAVISVP2,2013-08-21 11:11:00,
2013-08-21 04:16:00,49.9,48.2,30.04,NNE,29,0.0,0.0,94,0.00,,,0.00,WUHU216DAVISVP2,2013-08-21 11:16:00,
2013-08-21 04:21:00,49.9,48.5,30.03,NNE,29,0.0,0.0,95,0.00,,,0.00,WUHU216DAVISVP2,2013-08-21 11:21:00,
2013-08-21 04:26:00,49.9,48.5,30.04,NNE,29,0.0,0.0,95,0.00,,,0.00,WUHU216DAVISVP2,2013-08-21 11:26:00,
2013-08-21 04:31:00,49.9,48.5,30.03,NNE,29,0.0,0.0,95,0.00,,,0.00,WUHU216DAVISVP2,2013-08-21 11:31:00,
2013-08-21 04:36:00,49.9,48.5,30.04,NNE,29,0.0,0.0,95,0.00,,,0.00,WUHU216DAVISVP2,2013-08-21 11:36:00,
2013-08-21 04:41:00,49.8,48.1,30.03,NNE,29,0.0,0.0,94,0.00,,,0.00,WUHU216DAVISVP2,2013-08-21 11:41:00,
2013-08-21 04:46:00,49.6,47.9,30.03,NNE,29,0.0,0.0,94,0.00,,,0.00,WUHU216DAVISVP2,2013-08-21 11:46:00,
2013-08-21 04:51:00,49.6,48.2,30.03,NNE,29,0.0,0.0,95,0.00,,,0.00,WUHU216DAVISVP2,2013-08-21 11:51:00,
2013-08-21 04:56:00,49.6,48.2,30.03,NNE,29,0.0,0.0,95,0.00,,,0.00,WUHU216DAVISVP2,2013-08-21 11:56:00,
2013-08-21 05:01:00,49.7,48.3,30.04,NNE,29,0.0,0.0,95,0.00,,,0.00,WUHU216DAVISVP2,2013-08-21 12:01:00,
2013-08-21 05:06:00,49.7,48.3,30.04,NNE,29,0.0,0.0,95,0.00,,,0.00,WUHU216DAVISVP2,2013-08-21 12:06:00,
2013-08-21 05:11:00,49.7,48.3,30.04,ESE,118,0.0,0.0,95,0.00,,,0.00,WUHU216DAVISVP2,2013-08-21 12:11:00,
2013-08-21 05:16:00,49.8,48.4,30.04,ESE,118,0.0,0.0,95,0.00,,,0.00,WUHU216DAVISVP2,2013-08-21 12:16:00,
2013-08-21 05:21:00,49.8,48.4,30.04,ESE,118,0.0,0.0,95,0.00,,,0.00,WUHU216DAVISVP2,2013-08-21 12:21:00,
2013-08-21 05:26:00,49.9,48.5,30.04,ESE,118,0.0,0.0,95,0.00,,,0.00,WUHU216DAVISVP2,2013-08-21 12:26:00,
2013-08-21 05:31:00,50.0,48.6,30.04,East,87,0.0,0.0,95,0.00,,,0.00,WUHU216DAVISVP2,2013-08-21 12:31:00,
2013-08-21 05:36:00,50.1,48.7,30.04,ENE,71,0.0,1.0,95,0.00,,,0.00,WUHU216DAVISVP2,2013-08-21 12:36:00,
2013-08-21 05:41:00,50.3,48.9,30.04,ENE,71,0.0,1.0,95,0.00,,,0.00,WUHU216DAVISVP2,2013-08-21 12:41:00,
2013-08-21 05:47:00,50.4,49.0,30.04,NE,46,0.0,0.0,95,0.00,,,0.00,WUHU216DAVISVP2,2013-08-21 12:47:00,
2013-08-21 05:52:00,50.4,48.7,30.04,NE,46,0.0,0.0,94,0.00,,,0.00,WUHU216DAVISVP2,2013-08-21 12:52:00,
2013-08-21 05:57:00,50.5,48.8,30.03,ENE,59,0.0,1.0,94,0.00,,,0.00,WUHU216DAVISVP2,2013-08-21 12:57:00,
2013-08-21 06:02:00,50.5,48.8,30.03,ENE,59,0.0,1.0,94,0.00,,,0.00,WUHU216DAVISVP2,2013-08-21 13:02:00,
2013-08-21 06:07:00,50.5,48.8,30.04,ENE,59,0.0,1.0,94,0.00,,,0.00,WUHU216DAVISVP2,2013-08-21 13:07:00,
2013-08-21 06:12:00,50.5,48.8,30.04,ENE,59,0.0,1.0,94,0.00,,,0.00,WUHU216DAVISVP2,2013-08-21 13:12:00,
2013-08-21 06:17:00,50.5,48.8,30.04,ENE,59,0.0,0.0,94,0.00,,,0.00,WUHU216DAVISVP2,2013-08-21 13:17:00,
2013-08-21 06:22:00,50.5,48.8,30.04,NNW,344,0.0,0.0,94,0.00,,,0.00,WUHU216DAVISVP2,2013-08-21 13:22:00,
2013-08-21 06:27:00,50.4,48.7,30.04,ENE,69,0.0,0.0,94,0.00,,,0.00,WUHU216DAVISVP2,2013-08-21 13:27:00,
2013-08-21 06:32:00,50.4,48.7,30.04,ENE,69,0.0,0.0,94,0.00,,,0.00,WUHU216DAVISVP2,2013-08-21 13:32:00,
2013-08-21 06:37:00,50.3,48.6,30.04,ENE,69,0.0,0.0,94,0.00,,,0.00,WUHU216DAVISVP2,2013-08-21 13:37:00,
2013-08-21 06:42:00,50.2,48.5,30.04,ENE,69,0.0,0.0,94,0.00,,,0.00,WUHU216DAVISVP2,2013-08-21 13:42:00,
2013-08-21 06:47:00,50.2,48.5,30.05,ENE,69,0.0,0.0,94,0.00,,,0.00,WUHU216DAVISVP2,2013-08-21 13:47:00,
2013-08-21 06:52:00,50.1,48.4,30.05,ENE,69,0.0,0.0,94,0.00,,,0.00,WUHU216DAVISVP2,2013-08-21 13:52:00,
2013-08-21 06:57:00,50.1,48.4,30.05,SE,126,0.0,0.0,94,0.00,,,0.00,WUHU216DAVISVP2,2013-08-21 13:57:00,
2013-08-21 07:02:00,50.1,48.4,30.05,SE,126,0.0,0.0,94,0.00,,,0.00,WUHU216DAVISVP2,2013-08-21 14:02:00,
2013-08-21 07:07:00,50.1,48.4,30.05,SE,126,0.0,0.0,94,0.00,,,0.00,WUHU216DAVISVP2,2013-08-21 14:07:00,
2013-08-21 07:12:00,50.2,48.8,30.05,SE,126,0.0,0.0,95,0.00,,,0.00,WUHU216DAVISVP2,2013-08-21 14:12:00,
2013-08-21 07:17:00,50.3,48.9,30.05,SE,126,0.0,0.0,95,0.00,,,0.00,WUHU216DAVISVP2,2013-08-21 14:17:00,
2013-08-21 07:22:00,50.4,49.0,30.06,SE,126,0.0,0.0,95,0.00,,,0.00,WUHU216DAVISVP2,2013-08-21 14:22:00,
2013-08-21 07:27:00,50.5,49.1,30.05,SE,126,0.0,0.0,95,0.00,,,0.00,WUHU216DAVISVP2,2013-08-21 14:27:00,
2013-08-21 07:32:00,50.6,49.2,30.05,SE,126,0.0,0.0,95,0.00,,,0.00,WUHU216DAVISVP2,2013-08-21 14:32:00,
2013-08-21 07:37:00,50.8,49.4,30.05,SE,126,0.0,0.0,95,0.00,,,0.00,WUHU216DAVISVP2,2013-08-21 14:37:00,
2013-08-21 07:42:00,51.1,49.7,30.05,ENE,61,0.0,1.0,95,0.00,,,0.00,WUHU216DAVISVP2,2013-08-21 14:42:00,
2013-08-21 07:47:00,51.6,50.2,30.05,ENE,61,0.0,1.0,95,0.00,,,0.00,WUHU216DAVISVP2,2013-08-21 14:47:00,
2013-08-21 07:52:00,52.1,50.7,30.05,ENE,61,0.0,1.0,95,0.00,,,0.00,WUHU216DAVISVP2,2013-08-21 14:52:00,
2013-08-21 07:57:00,52.6,50.9,30.05,ENE,58,0.0,1.0,94,0.00,,,0.00,WUHU216DAVISVP2,2013-08-21 14:57:00,
2013-08-21 08:02:00,53.2,51.2,30.05,ENE,71,0.0,2.0,93,0.00,,,0.00,WUHU216DAVISVP2,2013-08-21 15:02:00,
2013-08-21 08:07:00,53.8,51.8,30.05,ENE,67,0.0,2.0,93,0.00,,,0.00,WUHU216DAVISVP2,2013-08-21 15:07:00,
2013-08-21 08:12:00,54.4,52.1,30.05,East,82,0.0,2.0,92,0.00,,,0.00,WUHU216DAVISVP2,2013-08-21 15:12:00,
2013-08-21 08:17:00,54.9,52.3,30.05,NE,50,0.0,1.0,91,0.00,,,0.00,WUHU216DAVISVP2,2013-08-21 15:17:00,
2013-08-21 08:22:00,55.5,52.6,30.05,NE,50,0.0,1.0,90,0.00,,,0.00,WUHU216DAVISVP2,2013-08-21 15:22:00,
2013-08-21 08:27:00,56.1,52.9,30.05,NE,51,0.0,1.0,89,0.00,,,0.00,WUHU216DAVISVP2,2013-08-21 15:27:00,
2013-08-21 08:32:00,56.6,53.1,30.05,NE,51,0.0,2.0,88,0.00,,,0.00,WUHU216DAVISVP2,2013-08-21 15:32:00,
2013-08-21 08:37:00,57.5,53.6,30.05,NE,47,1.0,2.0,87,0.00,,,0.00,WUHU216DAVISVP2,2013-08-21 15:37:00,
2013-08-21 08:42:00,58.5,53.7,30.05,NE,56,0.0,2.0,84,0.00,,,0.00,WUHU216DAVISVP2,2013-08-21 15:42:00,
2013-08-21 08:47:00,59.2,54.1,30.05,NE,56,0.0,2.0,83,0.00,,,0.00,WUHU216DAVISVP2,2013-08-21 15:47:00,
2013-08-21 08:51:00,60.0,54.5,30.05,NE,56,0.0,0.0,82,0.00,,,0.00,WUHU216DAVISVP2,2013-08-21 15:51:00,
2013-08-21 08:56:00,60.6,54.5,30.04,ENE,57,0.0,0.0,80,0.00,,,0.00,WUHU216DAVISVP2,2013-08-21 15:56:00,
2013-08-21 09:01:00,61.4,54.2,30.04,East,98,0.0,0.0,77,0.00,,,0.00,WUHU216DAVISVP2,2013-08-21 16:01:00,
2013-08-21 09:06:00,62.0,54.8,30.04,ESE,105,0.0,0.0,77,0.00,,,0.00,WUHU216DAVISVP2,2013-08-21 16:06:00,
2013-08-21 09:11:00,62.5,53.9,30.04,ESE,105,0.0,1.0,73,0.00,,,0.00,WUHU216DAVISVP2,2013-08-21 16:11:00,
2013-08-21 09:16:00,62.8,54.9,30.04,North,11,0.0,1.0,75,0.00,,,0.00,WUHU216DAVISVP2,2013-08-21 16:16:00,
2013-08-21 09:21:00,63.1,54.4,30.04,North,11,0.0,0.0,73,0.00,,,0.00,WUHU216DAVISVP2,2013-08-21 16:21:00,
2013-08-21 09:26:00,63.2,54.2,30.03,North,5,0.0,1.0,72,0.00,,,0.00,WUHU216DAVISVP2,2013-08-21 16:26:00,
2013-08-21 09:31:00,63.6,54.2,30.03,North,5,0.0,1.0,71,0.00,,,0.00,WUHU216DAVISVP2,2013-08-21 16:31:00,
2013-08-21 09:36:00,64.2,54.4,30.03,NNE,22,0.0,1.0,70,0.00,,,0.00,WUHU216DAVISVP2,2013-08-21 16:36:00,
2013-08-21 09:41:00,64.4,54.6,30.03,NNE,22,0.0,1.0,70,0.00,,,0.00,WUHU216DAVISVP2,2013-08-21 16:41:00,
2013-08-21 09:46:00,64.7,53.7,30.03,NNE,17,0.0,2.0,67,0.00,,,0.00,WUHU216DAVISVP2,2013-08-21 16:46:00,
2013-08-21 09:51:00,65.1,54.0,30.03,North,351,0.0,2.0,67,0.00,,,0.00,WUHU216DAVISVP2,2013-08-21 16:51:00,
2013-08-21 09:56:00,65.3,54.2,30.03,WNW,283,1.0,3.0,67,0.00,,,0.00,WUHU216DAVISVP2,2013-08-21 16:56:00,
2013-08-21 10:01:00,65.7,54.2,30.03,NW,309,0.0,3.0,66,0.00,,,0.00,WUHU216DAVISVP2,2013-08-21 17:01:00,
2013-08-21 10:06:00,65.8,53.5,30.03,North,5,0.0,2.0,64,0.00,,,0.00,WUHU216DAVISVP2,2013-08-21 17:06:00,
2013-08-21 10:11:00,65.9,54.0,30.03,North,355,2.0,2.0,65,0.00,,,0.00,WUHU216DAVISVP2,2013-08-21 17:11:00,
2013-08-21 10:16:00,66.5,53.7,30.03,North,355,1.0,2.0,63,0.00,,,0.00,WUHU216DAVISVP2,2013-08-21 17:16:00,
2013-08-21 10:21:00,66.8,54.8,30.03,WNW,296,0.0,3.0,65,0.00,,,0.00,WUHU216DAVISVP2,2013-08-21 17:21:00,
2013-08-21 10:26:00,67.0,54.6,30.03,East,87,0.0,3.0,64,0.00,,,0.00,WUHU216DAVISVP2,2013-08-21 17:26:00,
2013-08-21 10:31:00,67.2,54.8,30.03,SSW,210,2.0,3.0,64,0.00,,,0.00,WUHU216DAVISVP2,2013-08-21 17:31:00,
2013-08-21 10:36:00,67.3,54.4,30.03,SW,214,1.0,3.0,63,0.00,,,0.00,WUHU216DAVISVP2,2013-08-21 17:36:00,
2013-08-21 10:41:00,67.5,55.1,30.03,WSW,239,0.0,3.0,64,0.00,,,0.00,WUHU216DAVISVP2,2013-08-21 17:41:00,
2013-08-21 10:46:00,68.0,54.7,30.03,NNE,23,0.0,3.0,62,0.00,,,0.00,WUHU216DAVISVP2,2013-08-21 17:46:00,
2013-08-21 10:51:00,68.4,55.1,30.03,SSW,202,0.0,3.0,62,0.00,,,0.00,WUHU216DAVISVP2,2013-08-21 17:51:00,
2013-08-21 10:56:00,68.9,56.0,30.03,North,5,0.0,2.0,63,0.00,,,0.00,WUHU216DAVISVP2,2013-08-21 17:56:00,
2013-08-21 11:01:00,69.2,54.9,30.03,North,360,5.0,5.0,60,0.00,,,0.00,WUHU216DAVISVP2,2013-08-21 18:01:00,
2013-08-21 11:06:00,69.2,54.4,30.03,NW,319,1.0,5.0,59,0.00,,,0.00,WUHU216DAVISVP2,2013-08-21 18:06:00,
2013-08-21 11:11:00,69.1,54.8,30.03,North,9,2.0,7.0,60,0.00,,,0.00,WUHU216DAVISVP2,2013-08-21 18:11:00,
2013-08-21 11:16:00,69.0,55.2,30.03,NNE,17,1.0,7.0,61,0.00,,,0.00,WUHU216DAVISVP2,2013-08-21 18:16:00,
2013-08-21 11:21:00,69.3,55.9,30.02,North,350,0.0,4.0,62,0.00,,,0.00,WUHU216DAVISVP2,2013-08-21 18:21:00,
2013-08-21 11:26:00,69.9,55.1,30.03,North,5,2.0,4.0,59,0.00,,,0.00,WUHU216DAVISVP2,2013-08-21 18:26:00,
2013-08-21 11:31:00,70.1,55.3,30.02,NE,35,2.0,5.0,59,0.00,,,0.00,WUHU216DAVISVP2,2013-08-21 18:31:00,
2013-08-21 11:36:00,70.4,56.0,30.02,NW,314,0.0,5.0,60,0.00,,,0.00,WUHU216DAVISVP2,2013-08-21 18:36:00,
2013-08-21 11:41:00,70.8,55.9,30.02,WNW,283,3.0,4.0,59,0.00,,,0.00,WUHU216DAVISVP2,2013-08-21 18:41:00,
2013-08-21 11:46:00,71.1,56.2,30.02,NE,51,1.0,5.0,59,0.00,,,0.00,WUHU216DAVISVP2,2013-08-21 18:46:00,
2013-08-21 11:51:00,71.5,56.1,30.01,North,360,0.0,5.0,58,0.00,,,0.00,WUHU216DAVISVP2,2013-08-21 18:51:00,
2013-08-21 11:56:00,71.5,55.6,30.01,NNE,27,1.0,5.0,57,0.00,,,0.00,WUHU216DAVISVP2,2013-08-21 18:56:00,
2013-08-21 12:01:00,71.7,56.3,30.01,NW,313,0.0,5.0,58,0.00,,,0.00,WUHU216DAVISVP2,2013-08-21 19:01:00,
2013-08-21 12:06:00,72.4,56.5,30.01,NNW,334,1.0,3.0,57,0.00,,,0.00,WUHU216DAVISVP2,2013-08-21 19:06:00,
2013-08-21 12:11:00,72.8,56.8,30.01,North,5,0.0,3.0,57,0.00,,,0.00,WUHU216DAVISVP2,2013-08-21 19:11:00,
2013-08-21 12:16:00,73.2,56.2,30.01,North,355,1.0,5.0,55,0.00,,,0.00,WUHU216DAVISVP2,2013-08-21 19:16:00,
2013-08-21 12:21:00,73.5,56.5,30.01,NNE,26,2.0,5.0,55,0.00,,,0.00,WUHU216DAVISVP2,2013-08-21 19:21:00,
2013-08-21 12:26:00,73.7,56.7,30.00,WNW,292,0.0,3.0,55,0.00,,,0.00,WUHU216DAVISVP2,2013-08-21 19:26:00,
2013-08-21 12:31:00,73.7,55.5,30.00,NNW,329,1.0,3.0,53,0.00,,,0.00,WUHU216DAVISVP2,2013-08-21 19:31:00,
2013-08-21 12:36:00,73.9,55.3,30.00,NE,45,1.0,5.0,52,0.00,,,0.00,WUHU216DAVISVP2,2013-08-21 19:36:00,
2013-08-21 12:41:00,73.7,55.1,30.00,NW,324,0.0,5.0,52,0.00,,,0.00,WUHU216DAVISVP2,2013-08-21 19:41:00,
2013-08-21 12:46:00,74.0,55.3,30.00,NE,44,1.0,5.0,52,0.00,,,0.00,WUHU216DAVISVP2,2013-08-21 19:46:00,
2013-08-21 12:51:00,74.1,56.5,30.00,North,5,2.0,5.0,54,0.00,,,0.00,WUHU216DAVISVP2,2013-08-21 19:51:00,
2013-08-21 12:56:00,74.3,56.2,30.00,NE,44,1.0,3.0,53,0.00,,,0.00,WUHU216DAVISVP2,2013-08-21 19:56:00,
2013-08-21 13:01:00,74.8,56.1,29.99,NNE,23,1.0,4.0,52,0.00,,,0.00,WUHU216DAVISVP2,2013-08-21 20:01:00,
2013-08-21 13:06:00,75.0,55.2,29.99,NNW,336,3.0,6.0,50,0.00,,,0.00,WUHU216DAVISVP2,2013-08-21 20:06:00,
2013-08-21 13:11:00,74.9,55.7,29.99,North,5,2.0,6.0,51,0.00,,,0.00,WUHU216DAVISVP2,2013-08-21 20:11:00,
2013-08-21 13:16:00,74.8,55.6,29.99,NW,316,5.0,5.0,51,0.00,,,0.00,WUHU216DAVISVP2,2013-08-21 20:16:00,
2013-08-21 13:21:00,75.0,55.7,29.99,NNE,24,0.0,5.0,51,0.00,,,0.00,WUHU216DAVISVP2,2013-08-21 20:21:00,
2013-08-21 13:26:00,75.4,55.6,29.99,North,360,0.0,5.0,50,0.00,,,0.00,WUHU216DAVISVP2,2013-08-21 20:26:00,
2013-08-21 13:31:00,75.5,55.6,29.99,NNW,342,1.0,5.0,50,0.00,,,0.00,WUHU216DAVISVP2,2013-08-21 20:31:00,
2013-08-21 13:36:00,75.7,55.8,29.98,NNW,344,4.0,4.0,50,0.00,,,0.00,WUHU216DAVISVP2,2013-08-21 20:36:00,
2013-08-21 13:41:00,75.9,56.0,29.98,NNE,19,3.0,4.0,50,0.00,,,0.00,WUHU216DAVISVP2,2013-08-21 20:41:00,
2013-08-21 13:46:00,76.1,55.5,29.98,North,5,2.0,5.0,49,0.00,,,0.00,WUHU216DAVISVP2,2013-08-21 20:46:00,
2013-08-21 13:51:00,76.3,55.2,29.98,NW,325,6.0,8.0,48,0.00,,,0.00,WUHU216DAVISVP2,2013-08-21 20:51:00,
2013-08-21 13:56:00,76.2,55.6,29.97,SE,146,0.0,8.0,49,0.00,,,0.00,WUHU216DAVISVP2,2013-08-21 20:56:00,
2013-08-21 14:01:00,76.8,56.3,29.97,North,360,3.0,4.0,49,0.00,,,0.00,WUHU216DAVISVP2,2013-08-21 21:01:00,
2013-08-21 14:06:00,76.9,55.2,29.97,North,355,2.0,5.0,47,0.00,,,0.00,WUHU216DAVISVP2,2013-08-21 21:06:00,
2013-08-21 14:11:00,76.8,55.1,29.97,North,351,1.0,5.0,47,0.00,,,0.00,WUHU216DAVISVP2,2013-08-21 21:11:00,
2013-08-21 14:16:00,76.6,55.4,29.97,NNW,348,4.0,4.0,48,0.00,,,0.00,WUHU216DAVISVP2,2013-08-21 21:16:00,
2013-08-21 14:21:00,76.7,55.6,29.97,NNE,25,2.0,4.0,48,0.00,,,0.00,WUHU216DAVISVP2,2013-08-21 21:21:00,
2013-08-21 14:26:00,77.1,55.3,29.97,NE,44,3.0,4.0,47,0.00,,,0.00,WUHU216DAVISVP2,2013-08-21 21:26:00,
2013-08-21 14:31:00,77.3,55.5,29.96,NNW,342,5.0,5.0,47,0.00,,,0.00,WUHU216DAVISVP2,2013-08-21 21:31:00,
2013-08-21 14:36:00,77.3,56.1,29.96,NNE,18,1.0,7.0,48,0.00,,,0.00,WUHU216DAVISVP2,2013-08-21 21:36:00,
2013-08-21 14:41:00,77.4,55.0,29.96,NNW,343,3.0,7.0,46,0.00,,,0.00,WUHU216DAVISVP2,2013-08-21 21:41:00,
2013-08-21 14:46:00,77.4,55.6,29.95,NNE,31,0.0,5.0,47,0.00,,,0.00,WUHU216DAVISVP2,2013-08-21 21:46:00,
2013-08-21 14:51:00,77.7,55.9,29.95,North,5,2.0,4.0,47,0.00,,,0.00,WUHU216DAVISVP2,2013-08-21 21:51:00,
2013-08-21 14:56:00,77.9,56.1,29.95,ENE,60,3.0,5.0,47,0.00,,,0.00,WUHU216DAVISVP2,2013-08-21 21:56:00,
2013-08-21 15:01:00,78.4,55.9,29.95,WNW,302,4.0,5.0,46,0.00,,,0.00,WUHU216DAVISVP2,2013-08-21 22:01:00,
2013-08-21 15:06:00,78.4,55.9,29.95,NW,323,4.0,5.0,46,0.00,,,0.00,WUHU216DAVISVP2,2013-08-21 22:06:00,
2013-08-21 15:11:00,78.3,56.5,29.95,NNE,31,4.0,7.0,47,0.00,,,0.00,WUHU216DAVISVP2,2013-08-21 22:11:00,
2013-08-21 15:16:00,78.0,56.1,29.94,NNW,346,5.0,7.0,47,0.00,,,0.00,WUHU216DAVISVP2,2013-08-21 22:16:00,
2013-08-21 15:21:00,77.8,56.0,29.94,NNW,336,2.0,6.0,47,0.00,,,0.00,WUHU216DAVISVP2,2013-08-21 22:21:00,
2013-08-21 15:26:00,77.8,56.0,29.94,North,11,2.0,6.0,47,0.00,,,0.00,WUHU216DAVISVP2,2013-08-21 22:26:00,
2013-08-21 15:31:00,77.6,56.4,29.94,NE,42,3.0,6.0,48,0.00,,,0.00,WUHU216DAVISVP2,2013-08-21 22:31:00,
2013-08-21 15:36:00,77.6,56.4,29.94,NNW,338,2.0,5.0,48,0.00,,,0.00,WUHU216DAVISVP2,2013-08-21 22:36:00,
2013-08-21 15:41:00,77.7,55.9,29.94,NW,326,3.0,5.0,47,0.00,,,0.00,WUHU216DAVISVP2,2013-08-21 22:41:00,
2013-08-21 15:46:00,77.7,56.5,29.93,North,349,1.0,4.0,48,0.00,,,0.00,WUHU216DAVISVP2,2013-08-21 22:46:00,
2013-08-21 15:51:00,77.9,56.1,29.94,NNE,16,1.0,4.0,47,0.00,,,0.00,WUHU216DAVISVP2,2013-08-21 22:51:00,
2013-08-21 15:56:00,77.9,56.7,29.93,NNW,346,2.0,5.0,48,0.00,,,0.00,WUHU216DAVISVP2,2013-08-21 22:56:00,
2013-08-21 16:01:00,78.0,57.4,29.93,West,269,0.0,5.0,49,0.00,,,0.00,WUHU216DAVISVP2,2013-08-21 23:01:00,
2013-08-21 16:06:00,78.1,57.5,29.93,NE,41,4.0,6.0,49,0.00,,,0.00,WUHU216DAVISVP2,2013-08-21 23:06:00,
2013-08-21 16:11:00,78.2,57.0,29.93,NW,324,2.0,6.0,48,0.00,,,0.00,WUHU216DAVISVP2,2013-08-21 23:11:00,
2013-08-21 16:16:00,78.1,56.9,29.93,NE,34,1.0,6.0,48,0.00,,,0.00,WUHU216DAVISVP2,2013-08-21 23:16:00,
2013-08-21 16:21:00,78.0,56.8,29.93,North,355,4.0,6.0,48,0.00,,,0.00,WUHU216DAVISVP2,2013-08-21 23:21:00,
2013-08-21 16:26:00,78.2,57.0,29.93,East,92,2.0,5.0,48,0.00,,,0.00,WUHU216DAVISVP2,2013-08-21 23:26:00,
2013-08-21 16:31:00,78.6,57.3,29.92,North,9,2.0,3.0,48,0.00,,,0.00,WUHU216DAVISVP2,2013-08-21 23:31:00,
2013-08-21 16:36:00,78.9,57.0,29.92,NW,326,4.0,6.0,47,0.00,,,0.00,WUHU216DAVISVP2,2013-08-21 23:36:00,
2013-08-21 16:41:00,79.2,57.9,29.92,NNE,24,4.0,6.0,48,0.00,,,0.00,WUHU216DAVISVP2,2013-08-21 23:41:00,
2013-08-21 16:46:00,79.3,57.4,29.92,NW,320,4.0,6.0,47,0.00,,,0.00,WUHU216DAVISVP2,2013-08-21 23:46:00,
2013-08-21 16:51:00,79.1,56.6,29.92,WNW,288,1.0,9.0,46,0.00,,,0.00,WUHU216DAVISVP2,2013-08-21 23:51:00,
2013-08-21 16:56:00,79.2,56.7,29.92,North,360,1.0,9.0,46,0.00,,,0.00,WUHU216DAVISVP2,2013-08-21 23:56:00,
2013-08-21 17:01:00,79.2,56.7,29.92,NNW,331,5.0,5.0,46,0.00,,,0.00,WUHU216DAVISVP2,2013-08-22 00:01:00,
2013-08-21 17:06:00,79.2,57.3,29.91,NNW,346,4.0,5.0,47,0.00,,,0.00,WUHU216DAVISVP2,2013-08-22 00:06:00,
2013-08-21 17:11:00,79.1,57.1,29.91,NNW,347,3.0,4.0,47,0.00,,,0.00,WUHU216DAVISVP2,2013-08-22 00:11:00,
2013-08-21 17:16:00,79.2,57.2,29.91,NNW,331,6.0,6.0,47,0.00,,,0.00,WUHU216DAVISVP2,2013-08-22 00:16:00,
2013-08-21 17:21:00,79.3,56.8,29.91,NNW,348,3.0,6.0,46,0.00,,,0.00,WUHU216DAVISVP2,2013-08-22 00:21:00,
2013-08-21 17:26:00,79.2,56.7,29.90,North,355,2.0,5.0,46,0.00,,,0.00,WUHU216DAVISVP2,2013-08-22 00:26:00,
2013-08-21 17:31:00,79.1,56.6,29.91,North,5,3.0,6.0,46,0.00,,,0.00,WUHU216DAVISVP2,2013-08-22 00:31:00,
2013-08-21 17:36:00,78.9,57.0,29.91,North,350,6.0,6.0,47,0.00,,,0.00,WUHU216DAVISVP2,2013-08-22 00:36:00,
2013-08-21 17:41:00,78.7,56.8,29.91,North,11,3.0,6.0,47,0.00,,,0.00,WUHU216DAVISVP2,2013-08-22 00:41:00,
2013-08-21 17:46:00,78.6,56.7,29.91,North,9,4.0,6.0,47,0.00,,,0.00,WUHU216DAVISVP2,2013-08-22 00:46:00,
2013-08-21 17:51:00,78.3,57.1,29.91,NW,311,5.0,6.0,48,0.00,,,0.00,WUHU216DAVISVP2,2013-08-22 00:51:00,
2013-08-21 17:56:00,78.1,56.3,29.91,NW,321,3.0,5.0,47,0.00,,,0.00,WUHU216DAVISVP2,2013-08-22 00:56:00,
2013-08-21 18:05:00,77.9,56.6,29.91,NNE,23,2.0,6.0,48,0.00,,,0.00,WUHU216DAVISVP2,2013-08-22 01:05:00,
2013-08-21 18:10:00,77.6,55.8,29.91,NNW,342,0.0,5.0,47,0.00,,,0.00,WUHU216DAVISVP2,2013-08-22 01:10:00,
2013-08-21 18:15:00,77.5,56.3,29.91,West,276,1.0,5.0,48,0.00,,,0.00,WUHU216DAVISVP2,2013-08-22 01:15:00,
2013-08-21 18:20:00,77.6,56.4,29.91,NNW,330,1.0,4.0,48,0.00,,,0.00,WUHU216DAVISVP2,2013-08-22 01:20:00,
2013-08-21 18:25:00,77.8,56.0,29.91,NNE,32,2.0,4.0,47,0.00,,,0.00,WUHU216DAVISVP2,2013-08-22 01:25:00,
2013-08-21 18:30:00,77.9,56.7,29.91,NNW,337,2.0,4.0,48,0.00,,,0.00,WUHU216DAVISVP2,2013-08-22 01:30:00,
2013-08-21 18:35:00,77.9,56.6,29.91,North,351,0.0,4.0,48,0.00,,,0.00,WUHU216DAVISVP2,2013-08-22 01:35:00,
2013-08-21 18:40:00,78.1,56.8,29.90,NNE,20,0.0,4.0,48,0.00,,,0.00,WUHU216DAVISVP2,2013-08-22 01:40:00,
2013-08-21 18:45:00,78.1,56.8,29.90,NNW,343,0.0,3.0,48,0.00,,,0.00,WUHU216DAVISVP2,2013-08-22 01:45:00,
2013-08-21 18:50:00,78.0,56.8,29.90,NNW,339,1.0,2.0,48,0.00,,,0.00,WUHU216DAVISVP2,2013-08-22 01:50:00,
2013-08-21 18:55:00,77.8,56.6,29.90,NNW,344,0.0,2.0,48,0.00,,,0.00,WUHU216DAVISVP2,2013-08-22 01:55:00,
2013-08-21 19:00:00,77.6,56.4,29.90,NNE,33,0.0,2.0,48,0.00,,,0.00,WUHU216DAVISVP2,2013-08-22 02:00:00,
2013-08-21 19:05:00,77.4,56.8,29.90,NNE,28,0.0,2.0,49,0.00,,,0.00,WUHU216DAVISVP2,2013-08-22 02:05:00,
2013-08-21 19:10:00,77.2,56.6,29.90,NNW,344,2.0,3.0,49,0.00,,,0.00,WUHU216DAVISVP2,2013-08-22 02:10:00,
2013-08-21 19:15:00,76.8,56.3,29.90,North,355,0.0,4.0,49,0.00,,,0.00,WUHU216DAVISVP2,2013-08-22 02:15:00,
2013-08-21 19:20:00,76.6,56.7,29.90,North,355,1.0,4.0,50,0.00,,,0.00,WUHU216DAVISVP2,2013-08-22 02:20:00,
2013-08-21 19:25:00,76.3,56.3,29.90,NNE,33,0.0,3.0,50,0.00,,,0.00,WUHU216DAVISVP2,2013-08-22 02:25:00,
2013-08-21 19:30:00,76.0,56.6,29.90,NNE,33,1.0,3.0,51,0.00,,,0.00,WUHU216DAVISVP2,2013-08-22 02:30:00,
2013-08-21 19:35:00,75.5,56.2,29.90,North,5,0.0,2.0,51,0.00,,,0.00,WUHU216DAVISVP2,2013-08-22 02:35:00,
2013-08-21 19:40:00,75.2,55.9,29.90,NNE,27,0.0,3.0,51,0.00,,,0.00,WUHU216DAVISVP2,2013-08-22 02:40:00,
2013-08-21 19:45:00,74.9,56.2,29.90,NNE,15,3.0,4.0,52,0.00,,,0.00,WUHU216DAVISVP2,2013-08-22 02:45:00,
2013-08-21 19:50:00,74.6,56.5,29.91,North,350,0.0,4.0,53,0.00,,,0.00,WUHU216DAVISVP2,2013-08-22 02:50:00,
2013-08-21 19:55:00,74.2,56.1,29.91,NE,37,0.0,2.0,53,0.00,,,0.00,WUHU216DAVISVP2,2013-08-22 02:55:00,
2013-08-21 20:00:00,73.9,56.2,29.91,NE,36,0.0,1.0,54,0.00,,,0.00,WUHU216DAVISVP2,2013-08-22 03:00:00,
2013-08-21 20:05:00,73.5,56.5,29.90,NE,36,0.0,1.0,55,0.00,,,0.00,WUHU216DAVISVP2,2013-08-22 03:05:00,
2013-08-21 20:10:00,73.1,56.1,29.91,NE,36,0.0,1.0,55,0.00,,,0.00,WUHU216DAVISVP2,2013-08-22 03:10:00,
2013-08-21 20:15:00,72.7,56.3,29.90,NE,36,0.0,0.0,56,0.00,,,0.00,WUHU216DAVISVP2,2013-08-22 03:15:00,
2013-08-21 20:20:00,72.2,56.3,29.91,NE,36,0.0,0.0,57,0.00,,,0.00,WUHU216DAVISVP2,2013-08-22 03:20:00,
2013-08-21 20:25:00,71.8,56.4,29.91,NE,36,0.0,0.0,58,0.00,,,0.00,WUHU216DAVISVP2,2013-08-22 03:25:00,
2013-08-21 20:30:00,71.3,56.4,29.91,NE,36,0.0,0.0,59,0.00,,,0.00,WUHU216DAVISVP2,2013-08-22 03:30:00,
2013-08-21 20:35:00,70.9,56.0,29.91,NE,36,0.0,0.0,59,0.00,,,0.00,WUHU216DAVISVP2,2013-08-22 03:35:00,
2013-08-21 20:40:00,70.5,56.1,29.91,NE,36,0.0,0.0,60,0.00,,,0.00,WUHU216DAVISVP2,2013-08-22 03:40:00,
2013-08-21 20:45:00,70.0,55.9,29.92,NE,36,0.0,0.0,61,0.00,,,0.00,WUHU216DAVISVP2,2013-08-22 03:45:00,
2013-08-21 20:50:00,69.5,56.1,29.92,NE,36,0.0,0.0,62,0.00,,,0.00,WUHU216DAVISVP2,2013-08-22 03:50:00,
2013-08-21 20:55:00,69.2,56.7,29.92,NE,36,0.0,0.0,64,0.00,,,0.00,WUHU216DAVISVP2,2013-08-22 03:55:00,
2013-08-21 21:00:00,68.6,56.5,29.92,NE,36,0.0,0.0,65,0.00,,,0.00,WUHU216DAVISVP2,2013-08-22 04:00:00,
2013-08-21 21:01:00,68.6,56.5,29.92,NE,36,0.0,0.0,65,0.00,,,0.00,WUHU216DAVISVP2,2013-08-22 04:01:00,
2013-08-21 21:06:00,68.2,56.6,29.92,NE,36,0.0,0.0,66,0.00,,,0.00,WUHU216DAVISVP2,2013-08-22 04:06:00,
2013-08-21 21:11:00,67.8,56.6,29.92,NE,36,0.0,0.0,67,0.00,,,0.00,WUHU216DAVISVP2,2013-08-22 04:11:00,
2013-08-21 21:16:00,67.3,56.5,29.92,NE,36,0.0,0.0,68,0.00,,,0.00,WUHU216DAVISVP2,2013-08-22 04:16:00,
2013-08-21 21:21:00,66.9,56.6,29.92,NE,36,0.0,0.0,69,0.00,,,0.00,WUHU216DAVISVP2,2013-08-22 04:21:00,
2013-08-21 21:26:00,66.5,57.0,29.92,NE,36,0.0,0.0,71,0.00,,,0.00,WUHU216DAVISVP2,2013-08-22 04:26:00,
2013-08-21 21:31:00,66.0,56.9,29.92,NE,36,0.0,0.0,72,0.00,,,0.00,WUHU216DAVISVP2,2013-08-22 04:31:00,
2013-08-21 21:36:00,65.6,56.8,29.92,NE,36,0.0,0.0,73,0.00,,,0.00,WUHU216DAVISVP2,2013-08-22 04:36:00,
2013-08-21 21:41:00,65.2,56.8,29.92,NE,36,0.0,0.0,74,0.00,,,0.00,WUHU216DAVISVP2,2013-08-22 04:41:00,
2013-08-21 21:46:00,64.8,56.7,29.92,NE,36,0.0,0.0,75,0.00,,,0.00,WUHU216DAVISVP2,2013-08-22 04:46:00,
2013-08-21 21:51:00,64.4,56.7,29.92,NE,36,0.0,0.0,76,0.00,,,0.00,WUHU216DAVISVP2,2013-08-22 04:51:00,
2013-08-21 21:56:00,64.1,56.8,29.92,NE,36,0.0,0.0,77,0.00,,,0.00,WUHU216DAVISVP2,2013-08-22 04:56:00,
2013-08-21 22:01:00,63.8,56.5,29.92,NE,36,0.0,0.0,77,0.00,,,0.00,WUHU216DAVISVP2,2013-08-22 05:01:00,
2013-08-21 22:06:00,63.5,56.6,29.92,NE,36,0.0,0.0,78,0.00,,,0.00,WUHU216DAVISVP2,2013-08-22 05:06:00,
2013-08-21 22:11:00,63.2,56.3,29.92,NE,36,0.0,0.0,78,0.00,,,0.00,WUHU216DAVISVP2,2013-08-22 05:11:00,
2013-08-21 22:16:00,63.0,56.5,29.93,NE,36,0.0,0.0,79,0.00,,,0.00,WUHU216DAVISVP2,2013-08-22 05:16:00,
2013-08-21 22:21:00,62.8,56.2,29.93,NE,36,0.0,0.0,79,0.00,,,0.00,WUHU216DAVISVP2,2013-08-22 05:21:00,
2013-08-21 22:26:00,62.5,56.2,29.92,NE,36,0.0,0.0,80,0.00,,,0.00,WUHU216DAVISVP2,2013-08-22 05:26:00,
2013-08-21 22:31:00,62.2,56.0,29.92,NE,36,0.0,0.0,80,0.00,,,0.00,WUHU216DAVISVP2,2013-08-22 05:31:00,
2013-08-21 22:36:00,61.9,56.1,29.92,NE,36,0.0,0.0,81,0.00,,,0.00,WUHU216DAVISVP2,2013-08-22 05:36:00,
2013-08-21 22:41:00,61.7,55.9,29.92,NE,36,0.0,0.0,81,0.00,,,0.00,WUHU216DAVISVP2,2013-08-22 05:41:00,
2013-08-21 22:46:00,61.5,56.0,29.92,NE,36,0.0,0.0,82,0.00,,,0.00,WUHU216DAVISVP2,2013-08-22 05:46:00,
2013-08-21 22:51:00,61.3,55.8,29.92,NE,36,0.0,0.0,82,0.00,,,0.00,WUHU216DAVISVP2,2013-08-22 05:51:00,
2013-08-21 22:56:00,61.2,55.7,29.92,NE,36,0.0,0.0,82,0.00,,,0.00,WUHU216DAVISVP2,2013-08-22 05:56:00,
2013-08-21 23:01:00,61.1,55.6,29.92,NE,36,0.0,1.0,82,0.00,,,0.00,WUHU216DAVISVP2,2013-08-22 06:01:00,
2013-08-21 23:06:00,60.9,55.4,29.92,NE,36,0.0,1.0,82,0.00,,,0.00,WUHU216DAVISVP2,2013-08-22 06:06:00,
2013-08-21 23:11:00,60.8,55.3,29.92,NE,36,0.0,0.0,82,0.00,,,0.00,WUHU216DAVISVP2,2013-08-22 06:11:00,
2013-08-21 23:16:00,60.7,55.5,29.92,NE,36,0.0,0.0,83,0.00,,,0.00,WUHU216DAVISVP2,2013-08-22 06:16:00,
2013-08-21 23:21:00,60.6,55.8,29.92,NE,36,0.0,0.0,84,0.00,,,0.00,WUHU216DAVISVP2,2013-08-22 06:21:00,
2013-08-21 23:26:00,60.5,55.3,29.92,NE,36,0.0,0.0,83,0.00,,,0.00,WUHU216DAVISVP2,2013-08-22 06:26:00,
2013-08-21 23:31:00,60.4,55.5,29.92,NE,36,0.0,0.0,84,0.00,,,0.00,WUHU216DAVISVP2,2013-08-22 06:31:00,
2013-08-21 23:36:00,60.3,55.5,29.92,NE,36,0.0,0.0,84,0.00,,,0.00,WUHU216DAVISVP2,2013-08-22 06:36:00,
2013-08-21 23:41:00,60.3,55.5,29.91,NE,36,0.0,0.0,84,0.00,,,0.00,WUHU216DAVISVP2,2013-08-22 06:41:00,
2013-08-21 23:46:00,60.2,55.4,29.92,NE,36,0.0,0.0,84,0.00,,,0.00,WUHU216DAVISVP2,2013-08-22 06:46:00,
2013-08-21 23:51:00,60.0,55.2,29.92,NE,36,0.0,0.0,84,0.00,,,0.00,WUHU216DAVISVP2,2013-08-22 06:51:00,
2013-08-21 23:56:00,59.9,55.4,29.92,NE,36,0.0,0.0,85,0.00,,,0.00,WUHU216DAVISVP2,2013-08-22 06:56:00,